ブレッシ彗星

P/2011 U2 ( Bressi )

English version
Home page
Updated on October 8, 2017

---------------------------------------------------------------------

・ プロフィール

発見日 2011年10月24日
発見光度 19.4等
発見者 Terry H. Bressi (Kitt Peak)

・ 写真集

・ 軌道要素

Epoch 2012 Apr. 23.0 TT = JDT 2456040.5
T 2012 May 7.85535 TT                                   MPCW
q   4.8373354            (2000.0)            P               Q
n   0.07766308     Peri.  157.76695     +0.42581726     -0.88926287
a   5.4407611      Node   266.69310     +0.80293453     +0.45646806
e   0.1109083      Incl.    9.63001     +0.41710406     +0.02912825
P  12.69
From 160 observations 2011 Oct. 24-2016 Apr. 1, mean residual 0".4.

・ 光度変化

        m1 = -8.0 + 5 logΔ + 35 log r

---------------------------------------------------------------------

軌道要素はM.P.E.C. 2017-N58に掲載されたものです。
光度グラフはComet for Windowsで作成したものです。

---------------------------------------------------------------------

Copyright(C) Seiichi Yoshida (comet@aerith.net). All rights reserved.